[[[{"header":{"parameterUnit":"kt","parameterCategory":2,"dx":1,"dy":1,"la1":30.253999710083008,"la2":30.299108505249023,"lo1":-89.0895004272461,"lo2":-89.04439544677734,"nx":28,"ny":28,"refTime":"2022-10-14T21:00:00:Z","depth":"0","parameterNumber":2,"parameterNumberName":"U-component_of_CURRENTS"},"data":[0.643,0.6362,0.6333,0.6113,0.6052,0.5814,0.5742,0.5705,0.587,0.6054,0.6299,0.665,0.6962,0.6987,0.6672,0.6552,0.5977,0.582,0.5827,0.6447,0.6534,0.6618,0.6337,0.5777,0.5775,0.4339,0.4328,0.4319,0.6479,0.6465,0.6468,0.6403,0.6302,0.636,0.6342,0.6254,0.6303,0.6677,0.6948,0.7373,0.76,0.7871,0.7992,0.7755,0.7448,0.7487,0.682,0.6722,0.7881,0.7636,0.7343,0.7344,0.7344,0.7344,0.7345,0.7345,0.6562,0.6567,0.6593,0.6579,0.6583,0.6529,0.6467,0.661,0.6716,0.6926,0.7346,0.7685,0.8125,0.889,0.9007,0.8855,0.8961,0.8592,0.8512,0.8269,0.7859,0.9071,0.9265,0.9269,0.9273,0.9277,0.928,0,0.6618,0.6636,0.6681,0.6697,0.6714,0.6727,0.6816,0.6844,0.7078,0.7257,0.7561,0.7842,0.8502,0.8791,0.9365,0.9578,0.9088,0.9596,0.9192,0.8267,0.7792,0.7634,0.8931,0.9086,0.909,0.9093,0.9095,0.9097,0.6678,0.669,0.6784,0.6796,0.6847,0.6912,0.6944,0.712,0.7201,0.7552,0.7631,0.8065,0.8381,0.9031,0.9375,0.982,0.9456,0.9671,0.9451,0.8953,0.8875,0.8559,0.8359,0.9139,0.9134,0.913,0.9126,0,0.6711,0.6787,0.684,0.6962,0.6987,0.7025,0.7157,0.7204,0.7398,0.7559,0.7642,0.8012,0.8417,0.876,0.9197,0.9349,0.938,0.9777,0.9306,0.9338,0.9017,0.8881,0.8657,0.8432,1.0001,1.0003,1.0005,0,0.6822,0.6846,0.6979,0.7003,0.7034,0.7181,0.7231,0.7359,0.7533,0.7641,0.7885,0.8034,0.8368,0.867,0.8888,0.9246,0.9325,0.9354,0.945,0.9082,0.9049,0.8709,0.8553,0.945,0.9447,0.9445,0.9442,0,0.6901,0.7003,0.7035,0.7081,0.7238,0.727,0.7354,0.7525,0.7589,0.7807,0.7912,0.8148,0.8285,0.8549,0.8813,0.8753,0.9191,0.9166,0.9339,0.9341,0.9076,0.9045,0.8805,0.9438,0.9437,0.9436,0.9435,0,0.7024,0.7101,0.7136,0.7274,0.7303,0.7333,0.7481,0.7534,0.7723,0.7818,0.7984,0.8102,0.8253,0.8267,0.8607,0.8508,0.8695,0.8796,0.8816,0.8795,0.8847,0.8796,0.8913,0.848,0.9053,0.9049,0.9046,0,0.7098,0.7168,0.7274,0.7312,0.7374,0.7515,0.7553,0.7667,0.778,0.7881,0.7995,0.8078,0.8105,0.816,0.8276,0.8413,0.8557,0.8368,0.8787,0.8797,0.8781,0.8947,0.8561,0.8857,0.8992,0.8998,0.9002,0,0.7178,0.7355,0.7354,0.7409,0.756,0.7602,0.7655,0.7763,0.7815,0.7903,0.7988,0.8025,0.8116,0.813,0.8165,0.8254,0.8473,0.831,0.8319,0.8458,0.8886,0.8875,0.8911,0.8577,0.8582,0.8586,0.8959,0,0.7355,0.7413,0.7424,0.754,0.7598,0.7633,0.7745,0.7787,0.7862,0.7933,0.8011,0.8038,0.8115,0.8124,0.8111,0.8223,0.8275,0.8303,0.8285,0.836,0.8513,0.8547,0.814,0.8139,0.8139,0.8138,0,0,0.7406,0.7479,0.76,0.7644,0.7698,0.7819,0.7839,0.7876,0.7939,0.7976,0.7992,0.8077,0.807,0.8114,0.8119,0.8129,0.8244,0.8085,0.8302,0.832,0.8337,0.8486,0.8519,0.8137,0.8137,0.8136,0.8136,0,0.7487,0.7584,0.7601,0.767,0.7779,0.784,0.7863,0.795,0.7973,0.7996,0.8029,0.8069,0.8064,0.8082,0.8093,0.8119,0.8192,0.8139,0.8112,0.8292,0.831,0.8327,0.8478,0.8508,0.8134,0.8135,0.8135,0,0.7571,0.767,0.7688,0.7811,0.7859,0.7898,0.7967,0.8008,0.8027,0.8043,0.8031,0.8064,0.8071,0.8072,0.8071,0.8054,0.8158,0.806,0.8064,0.8015,0.8198,0.8219,0.8237,0.8006,0.8006,0.8006,0,0,0.763,0.7682,0.781,0.7835,0.7875,0.7954,0.798,0.8023,0.8054,0.8057,0.8054,0.8055,0.8068,0.8055,0.8046,0.8027,0.8094,0.8044,0.805,0.8055,0.8011,0.8192,0.8212,0.8004,0.8004,0.8004,0,0,0.764,0.7791,0.7839,0.7886,0.7952,0.8027,0.8025,0.8076,0.8075,0.8072,0.8072,0.8065,0.8067,0.8043,0.8027,0.8045,0.8022,0.8023,0.8051,0.8058,0.8064,0.8014,0.8008,0,0,0,0,0,0.7774,0.7782,0.7825,0.7849,0.7958,0.8016,0.8024,0.807,0.8098,0.8092,0.8095,0.8078,0.8046,0.8029,0.8018,0.8039,0.7984,0.7988,0.7991,0.8025,0.8033,0.804,0,0,0,0,0,0,0.7784,0.7813,0.7825,0.7909,0.7935,0.8015,0.8047,0.8057,0.8099,0.8103,0.8081,0.8076,0.8058,0.8033,0.8023,0.8044,0.8011,0.7986,0.7989,0.7991,0.8028,0.8034,0.804,0,0,0,0,0,0.7793,0.7816,0.7988,0.7906,0.7929,0.8003,0.8047,0.8056,0.8074,0.8071,0.8069,0.8116,0.8058,0.8049,0.8027,0.805,0.8018,0.8014,0.7988,0.799,0.7992,0.8031,0,0,0,0,0,0,0.7799,0.7789,0.7992,0.7999,0.7918,0.7997,0.8013,0.8054,0.8037,0.8041,0.8102,0.8104,0.8057,0.805,0.8043,0.8055,0.8023,0.802,0.8017,0.7989,0.7991,0.7993,0,0,0,0,0,0,0.7778,0.7795,0.7995,0.8007,0.8015,0.7992,0.8007,0.7967,0.8033,0.8063,0.8069,0.8103,0.8053,0.8051,0.8046,0.7983,0.8027,0.8024,0.8021,0.802,0.7991,0.7992,0,0,0,0,0,0,0.7785,0.7799,0.8004,0.801,0.8017,0.809,0.7951,0.8041,0.8106,0.8058,0.811,0.8111,0.8052,0.8048,0.8047,0.7986,0.7984,0.8027,0.8025,0.8023,0.8022,0,0,0,0,0,0,0,0.7791,0.7696,0.7967,0.8013,0.8019,0.8072,0.8072,0.8072,0.8107,0.8108,0.8109,0.8111,0.8047,0.8043,0.8039,0.7989,0,0,0.8027,0.8026,0,0,0,0,0,0,0,0,0.769,0.7695,0.7968,0.797,0.7973,0.8072,0.8072,0.8072,0.8107,0.8108,0.8109,0.811,0.8046,0.8043,0.8039,0,0,0,0,0,0,0,0,0,0,0,0,0,0,0,0.7968,0.797,0,0.8072,0.8072,0.8072,0.8107,0.8108,0.8109,0.811,0.8045,0.8042,0.804,0,0,0,0,0,0,0,0,0,0,0,0,0,0,0,0,0,0,0,0,0,0,0,0,0,0,0,0,0,0,0,0,0,0,0,0,0,0,0,0,0,0,0,0,0,0,0,0,0,0,0,0,0,0,0,0,0,0,0,0,0,0,0,0,0,0,0,0,0]}],[{"header":{"parameterUnit":"kt","parameterCategory":2,"dx":1,"dy":1,"la1":30.253999710083008,"la2":30.299108505249023,"lo1":-89.0895004272461,"lo2":-89.04439544677734,"nx":28,"ny":28,"refTime":"2022-10-14T21:00:00:Z","depth":"0","parameterNumber":3,"parameterNumberName":"V-component_of_CURRENTS"},"data":[0.0927,0.1098,0.1198,0.1648,0.1867,0.2271,0.2532,0.2957,0.3366,0.3994,0.4343,0.4532,0.3805,0.1331,-0.0459,-0.0862,-0.1404,-0.1416,-0.1719,-0.1368,-0.1325,-0.1285,-0.1394,-0.1702,-0.1704,-0.2384,-0.2391,-0.2397,0.086,0.097,0.1155,0.1412,0.1692,0.177,0.2179,0.2452,0.2969,0.3438,0.3781,0.3814,0.3068,0.2164,0.0801,0.0006,-0.0305,-0.0457,-0.0706,-0.077,-0.0036,-0.009,-0.0127,-0.0127,-0.0126,-0.0126,-0.0125,-0.0125,0.0765,0.0844,0.0992,0.118,0.1383,0.1686,0.1901,0.2195,0.2574,0.3022,0.3084,0.3426,0.2881,0.2187,0.1623,0.0563,0.0595,0.0191,0.0029,-0.006,-0.0219,0.0647,0.0747,0.0746,0.0745,0.0744,0.0744,0,0.0678,0.0723,0.082,0.1019,0.1172,0.1364,0.1576,0.1764,0.1964,0.222,0.2569,0.2702,0.2455,0.2186,0.1637,0.1281,0.0447,0.0708,0.0229,-0.0069,-0.0189,-0.0352,0.0441,0.0602,0.06,0.0599,0.0598,0.0597,0.0545,0.0634,0.0762,0.0855,0.0904,0.1055,0.12,0.1293,0.1477,0.1741,0.1908,0.1962,0.2094,0.1794,0.1323,0.0955,0.055,0.0682,0.0474,0.0044,-0.0191,-0.0325,-0.0427,0.0579,0.0581,0.0583,0.0584,0,0.0469,0.0511,0.0633,0.0726,0.0772,0.0873,0.1032,0.1175,0.1248,0.1494,0.1542,0.1561,0.1539,0.1264,0.1049,0.076,0.0402,0.0492,0.0589,0.0548,-0.0003,-0.0178,-0.0301,-0.0419,0.0415,0.0416,0.0417,0,0.0347,0.0433,0.0488,0.0559,0.0702,0.07,0.0871,0.0898,0.101,0.119,0.1068,0.1218,0.0938,0.0898,0.0644,0.0501,0.0528,0.0248,0.0199,0.0237,0.0239,-0.018,-0.0369,0.0195,0.0194,0.0193,0.0193,0,0.0228,0.0302,0.0419,0.0441,0.0512,0.0569,0.061,0.0665,0.0752,0.0812,0.0896,0.0823,0.0856,0.0682,0.0494,0.0397,0.0413,0.0238,0.0154,0.0154,0.0172,0.017,-0.0078,0.0192,0.0192,0.0191,0.0191,0,0.0109,0.0158,0.0285,0.0353,0.0377,0.043,0.053,0.0571,0.0609,0.0604,0.0595,0.053,0.0527,0.0364,0.028,0.0254,0.0138,0.0047,0.0046,0.0019,-0.0116,0.0024,0.0198,-0.0248,-0.0012,-0.0013,-0.0015,0,0.0017,0.0111,0.0082,0.0186,0.0241,0.0207,0.0265,0.0279,0.027,0.0321,0.0229,0.025,0.0089,0.0099,0.0057,-0.0031,-0.003,-0.0086,-0.0163,-0.0163,-0.0147,0.0009,0.0069,0.0166,-0.0036,-0.0034,-0.0032,0,-0.0071,-0.0056,-0.0045,-0.0007,-0.0012,0.0016,0.0056,0.0087,0.0144,0.0068,0.0135,0.0036,-0.0013,-0.0049,-0.0133,-0.0147,-0.0071,-0.024,-0.0245,-0.0189,-0.0045,-0.0025,-0.0009,-0.0153,-0.0151,-0.0148,-0.0049,0,-0.014,-0.0127,-0.0107,-0.01,-0.0091,-0.0057,-0.0083,-0.0073,-0.0115,-0.0144,-0.0144,-0.0242,-0.0277,-0.0318,-0.0385,-0.0327,-0.0353,-0.0445,-0.0506,-0.0406,-0.0379,-0.0364,-0.0579,-0.0582,-0.0585,-0.0587,0,0,-0.0214,-0.0209,-0.0266,-0.0241,-0.023,-0.0291,-0.0241,-0.0259,-0.0308,-0.0304,-0.0369,-0.0444,-0.0527,-0.0507,-0.0485,-0.0543,-0.0545,-0.0544,-0.0465,-0.0451,-0.0438,-0.0406,-0.0389,-0.0592,-0.0593,-0.0594,-0.0594,0,-0.0252,-0.0297,-0.0279,-0.0285,-0.0306,-0.0329,-0.0319,-0.0363,-0.038,-0.0391,-0.0473,-0.0506,-0.0589,-0.0622,-0.0656,-0.0581,-0.0649,-0.0611,-0.0478,-0.0488,-0.047,-0.0455,-0.0419,-0.0403,-0.0601,-0.06,-0.06,0,-0.031,-0.0348,-0.0356,-0.0389,-0.041,-0.0388,-0.0468,-0.0466,-0.0449,-0.0578,-0.0578,-0.0648,-0.073,-0.0736,-0.0748,-0.0784,-0.073,-0.0781,-0.0768,-0.0733,-0.0747,-0.0727,-0.0709,-0.0941,-0.0941,-0.0942,0,0,-0.0334,-0.035,-0.0397,-0.0401,-0.0404,-0.0459,-0.0469,-0.0501,-0.0545,-0.0564,-0.0632,-0.0698,-0.0741,-0.0766,-0.0818,-0.0823,-0.0842,-0.0816,-0.08,-0.0786,-0.0744,-0.0754,-0.0735,-0.0944,-0.0944,-0.0944,0,0,-0.0348,-0.0412,-0.0442,-0.0453,-0.0469,-0.0528,-0.0521,-0.0559,-0.0597,-0.0609,-0.071,-0.0731,-0.0746,-0.0808,-0.0823,-0.0838,-0.0911,-0.091,-0.0783,-0.0765,-0.075,-0.0684,-0.0923,0,0,0,0,0,-0.0411,-0.0402,-0.0428,-0.0439,-0.0506,-0.0513,-0.0521,-0.0576,-0.0615,-0.0597,-0.0663,-0.0734,-0.083,-0.0845,-0.0864,-0.0834,-0.097,-0.0965,-0.0961,-0.0801,-0.078,-0.0763,0,0,0,0,0,0,-0.0415,-0.0428,-0.0429,-0.0488,-0.0504,-0.0515,-0.0587,-0.0602,-0.0617,-0.0625,-0.0718,-0.0737,-0.0806,-0.0843,-0.0858,-0.0827,-0.0918,-0.0968,-0.0964,-0.0961,-0.0794,-0.0777,-0.0763,0,0,0,0,0,-0.0419,-0.0429,-0.0524,-0.0489,-0.0502,-0.057,-0.0589,-0.0601,-0.0614,-0.0713,-0.0731,-0.0652,-0.0803,-0.0822,-0.0852,-0.0817,-0.0908,-0.0913,-0.0965,-0.0962,-0.096,-0.0786,0,0,0,0,0,0,-0.0422,-0.0441,-0.0528,-0.0534,-0.0499,-0.0569,-0.0582,-0.06,-0.0703,-0.0719,-0.0653,-0.0658,-0.0802,-0.0817,-0.083,-0.0808,-0.09,-0.0905,-0.0909,-0.0963,-0.0961,-0.0959,0,0,0,0,0,0,-0.0436,-0.0445,-0.0531,-0.0541,-0.0549,-0.0568,-0.058,-0.0631,-0.0705,-0.0638,-0.0644,-0.0654,-0.0797,-0.0812,-0.0823,-0.0899,-0.0894,-0.0899,-0.0903,-0.0905,-0.0961,-0.0959,0,0,0,0,0,0,-0.0441,-0.0449,-0.054,-0.0546,-0.0553,-0.0624,-0.0617,-0.0693,-0.068,-0.0634,-0.0684,-0.0686,-0.0792,-0.0804,-0.0818,-0.0889,-0.0896,-0.0894,-0.0897,-0.09,-0.0902,0,0,0,0,0,0,0,-0.0445,-0.0377,-0.0492,-0.055,-0.0556,-0.0589,-0.0591,-0.0592,-0.0681,-0.0682,-0.0684,-0.0685,-0.0864,-0.087,-0.0876,-0.088,0,0,-0.0893,-0.0896,0,0,0,0,0,0,0,0,-0.0375,-0.0377,-0.0492,-0.0493,-0.0494,-0.0589,-0.0591,-0.0592,-0.0681,-0.0682,-0.0683,-0.0685,-0.0866,-0.087,-0.0875,0,0,0,0,0,0,0,0,0,0,0,0,0,0,0,-0.0492,-0.0493,0,-0.0589,-0.0591,-0.0592,-0.0681,-0.0682,-0.0683,-0.0684,-0.0867,-0.0871,-0.0875,0,0,0,0,0,0,0,0,0,0,0,0,0,0,0,0,0,0,0,0,0,0,0,0,0,0,0,0,0,0,0,0,0,0,0,0,0,0,0,0,0,0,0,0,0,0,0,0,0,0,0,0,0,0,0,0,0,0,0,0,0,0,0,0,0,0,0,0,0]}]],[[{"header":{"parameterUnit":"kt","parameterCategory":2,"dx":1,"dy":1,"la1":30.253999710083008,"la2":30.299108505249023,"lo1":-89.0895004272461,"lo2":-89.04439544677734,"nx":28,"ny":28,"refTime":"2022-10-14T21:00:00:Z","depth":"2","parameterNumber":2,"parameterNumberName":"U-component_of_CURRENTS"},"data":[0.5223,0.522,0.5302,0.5498,0.5753,0.5694,0.5552,0.5153,0.4971,0.4508,0.4344,0.4462,0.4693,0.3966,0.3936,0.3694,0.4198,0.3542,0.5043,0.5367,0.5484,0.5881,0.5511,0,0,0,0,0,0.5401,0.5444,0.5698,0.5845,0.6001,0.6246,0.6272,0.6009,0.577,0.5796,0.5764,0.519,0.4893,0.5063,0.4771,0.4642,0.4741,0.4478,0.4639,0.4779,0.4905,0.4566,0.3523,0.3517,0.3511,0.3506,0,0,0.562,0.5615,0.5762,0.5965,0.6245,0.6319,0.6273,0.6448,0.6496,0.659,0.6828,0.6642,0.6639,0.6188,0.5991,0.5952,0.6466,0.6161,0.6221,0.6296,0.6017,0.5745,0.5363,0.537,0.5376,0.5382,0.5387,0,0.5759,0.5793,0.5892,0.6135,0.636,0.6533,0.689,0.6855,0.73,0.7487,0.7613,0.7643,0.7662,0.7285,0.7172,0.7053,0.7363,0.7002,0.8101,0.6952,0.67,0.6634,0.6672,0.655,0.6565,0.6575,0.6583,0.6589,0.5946,0.5959,0.621,0.6366,0.6514,0.6844,0.7032,0.7456,0.7579,0.8046,0.8086,0.8399,0.8261,0.8275,0.8149,0.8096,0.8327,0.7347,0.7231,0.8004,0.7936,0.7924,0.7911,0.6741,0.6721,0.6706,0.6693,0,0.6,0.6143,0.6283,0.662,0.6792,0.7002,0.7395,0.7587,0.7969,0.8138,0.8307,0.8522,0.8684,0.8734,0.8974,0.8628,0.8644,0.8447,0.7805,0.7662,0.8007,0.7976,0.811,0.8094,0.8081,0.8069,0.806,0,0.6146,0.6287,0.6556,0.6565,0.6873,0.7133,0.7405,0.7673,0.7968,0.808,0.8319,0.839,0.8674,0.8704,0.8742,0.8548,0.8872,0.8391,0.8331,0.788,0.7789,0.8607,0.8561,0.8986,0.8984,0.8983,0.8982,0,0.6135,0.635,0.6487,0.6545,0.6745,0.6968,0.7163,0.736,0.7514,0.7918,0.8092,0.8307,0.8521,0.863,0.8629,0.8606,0.8822,0.8834,0.8336,0.8297,0.7813,0.7713,0.8981,0.8981,0.898,0.898,0.898,0,0.613,0.613,0.6301,0.6564,0.6655,0.6767,0.7062,0.7211,0.7399,0.7617,0.7771,0.7883,0.8149,0.8118,0.8347,0.823,0.8267,0.8353,0.836,0.7812,0.7618,0.723,0.7355,0.8306,0.8301,0.8296,0.8292,0,0.605,0.6125,0.6083,0.6275,0.6371,0.6434,0.6578,0.6702,0.6875,0.7117,0.7308,0.7623,0.7503,0.776,0.7858,0.8049,0.8144,0.7987,0.8053,0.8054,0.7568,0.7806,0.727,0.7322,0.8233,0.8239,0.8244,0,0.5921,0.5921,0.5925,0.6043,0.6034,0.6125,0.6252,0.6389,0.6584,0.6752,0.7051,0.7336,0.7411,0.7496,0.7535,0.7709,0.8033,0.7641,0.7643,0.7675,0.8289,0.7782,0.7773,0.8028,0.8037,0.8044,0.8197,0,0.5776,0.5787,0.5829,0.584,0.5893,0.5997,0.6054,0.6173,0.6345,0.6401,0.6736,0.6908,0.7098,0.7204,0.7223,0.7494,0.7377,0.7339,0.7207,0.7453,0.7474,0.7513,0.6986,0.698,0.6976,0.6972,0,0,0.5693,0.5655,0.5616,0.5642,0.5695,0.5704,0.5829,0.5888,0.6005,0.6124,0.6195,0.6543,0.6671,0.6867,0.6968,0.7007,0.7002,0.6951,0.7311,0.7349,0.7384,0.742,0.7461,0.6964,0.6963,0.6961,0.696,0,0.5574,0.5544,0.5583,0.5607,0.5654,0.563,0.5697,0.5766,0.5862,0.6086,0.6066,0.6289,0.6492,0.6545,0.6619,0.6916,0.6859,0.694,0.7104,0.7268,0.7312,0.735,0.7395,0.7435,0.6949,0.695,0.695,0,0.5508,0.5417,0.5452,0.5408,0.5475,0.5519,0.5501,0.5597,0.5678,0.5663,0.5848,0.5948,0.6027,0.6229,0.6338,0.6258,0.6686,0.6559,0.6583,0.6579,0.6739,0.679,0.6835,0.6254,0.6253,0.6251,0,0,0.5438,0.5418,0.5398,0.5397,0.544,0.5484,0.5509,0.5523,0.5584,0.5636,0.5699,0.5805,0.5942,0.6027,0.6117,0.6337,0.6332,0.6481,0.6513,0.6541,0.6553,0.6719,0.6767,0.6245,0.6244,0.6244,0,0,0.542,0.5352,0.538,0.5333,0.5378,0.5347,0.5397,0.5427,0.5541,0.5597,0.5599,0.5621,0.5858,0.5856,0.5763,0.611,0.5964,0.5987,0.6136,0.6177,0.6208,0.6192,0.567,0,0,0,0,0,0.5394,0.5359,0.5387,0.5375,0.5341,0.5358,0.5362,0.5331,0.5382,0.5437,0.5515,0.5503,0.5771,0.5687,0.5726,0.592,0.616,0.6175,0.6189,0.6432,0.6475,0.6511,0,0,0,0,0,0,0.5389,0.5375,0.5386,0.5345,0.5336,0.5357,0.5284,0.5281,0.5371,0.5369,0.5487,0.5501,0.5467,0.5669,0.5704,0.5889,0.5658,0.6166,0.6179,0.619,0.6447,0.6482,0.6512,0,0,0,0,0,0.5384,0.5373,0.5315,0.5348,0.534,0.5296,0.5283,0.5279,0.5399,0.5369,0.5386,0.5378,0.5466,0.5501,0.569,0.5874,0.5634,0.5647,0.6174,0.6184,0.6193,0.6464,0,0,0,0,0,0,0.538,0.5413,0.5315,0.5312,0.5316,0.5298,0.5292,0.5279,0.54,0.5408,0.5248,0.5244,0.5468,0.5495,0.5521,0.587,0.5614,0.5628,0.5636,0.6182,0.619,0.6197,0,0,0,0,0,0,0.5416,0.5411,0.5315,0.5277,0.5271,0.53,0.5294,0.5437,0.5409,0.5281,0.5274,0.5246,0.5462,0.549,0.5511,0.5734,0.56,0.5612,0.5621,0.5626,0.6188,0.6194,0,0,0,0,0,0,0.5415,0.541,0.5279,0.5275,0.527,0.5257,0.5436,0.5437,0.5263,0.5283,0.5255,0.5251,0.5461,0.548,0.5504,0.5718,0.573,0.56,0.5609,0.5615,0.5619,0,0,0,0,0,0,0,0.5413,0.5437,0.5305,0.5273,0.5268,0.5285,0.5287,0.5289,0.5262,0.5259,0.5256,0.5253,0.5528,0.5542,0.5556,0.5704,0,0,0.5599,0.5605,0,0,0,0,0,0,0,0,0.544,0.5438,0.5304,0.5302,0.5301,0.5285,0.5287,0.5288,0.5261,0.5259,0.5256,0.5254,0.5532,0.5543,0.5554,0,0,0,0,0,0,0,0,0,0,0,0,0,0,0,0.5304,0.5303,0,0.5286,0.5287,0.5288,0.5261,0.5259,0.5257,0.5255,0.5535,0.5544,0.5553,0,0,0,0,0,0,0,0,0,0,0,0,0,0,0,0,0,0,0,0,0,0,0,0,0,0,0,0,0,0,0,0,0,0,0,0,0,0,0,0,0,0,0,0,0,0,0,0,0,0,0,0,0,0,0,0,0,0,0,0,0,0,0,0,0,0,0,0,0]}],[{"header":{"parameterUnit":"kt","parameterCategory":2,"dx":1,"dy":1,"la1":30.253999710083008,"la2":30.299108505249023,"lo1":-89.0895004272461,"lo2":-89.04439544677734,"nx":28,"ny":28,"refTime":"2022-10-14T21:00:00:Z","depth":"2","parameterNumber":3,"parameterNumberName":"V-component_of_CURRENTS"},"data":[0.1476,0.1648,0.1747,0.2064,0.2185,0.2468,0.2682,0.2968,0.3089,0.3231,0.3105,0.2862,0.2044,0.1323,0.0574,0.0048,-0.0032,-0.0068,0.0009,0.0269,0.0289,-0.0216,-0.0199,0,0,0,0,0,0.1387,0.1528,0.1662,0.1895,0.207,0.2098,0.2406,0.2611,0.3014,0.3101,0.3179,0.2555,0.1961,0.1274,0.0281,-0.0342,-0.0356,-0.0515,-0.0381,-0.0367,-0.0354,-0.0357,-0.0492,-0.0493,-0.0494,-0.0495,0,0,0.1299,0.1409,0.158,0.172,0.1844,0.2076,0.2252,0.244,0.2706,0.288,0.2865,0.2787,0.2156,0.1159,0.059,-0.0068,-0.0066,-0.035,-0.0339,-0.0329,-0.0334,-0.0319,-0.0461,-0.0461,-0.0462,-0.0462,-0.0462,0,0.123,0.1304,0.1436,0.1587,0.169,0.1844,0.1929,0.2079,0.216,0.2299,0.248,0.2474,0.1977,0.1494,0.0714,0.037,0.0008,-0.0125,-0.0034,-0.0089,-0.0063,-0.0131,-0.0125,-0.0159,-0.0158,-0.0157,-0.0156,-0.0156,0.1106,0.1217,0.1387,0.145,0.1485,0.1571,0.1644,0.1648,0.1741,0.1856,0.1952,0.1856,0.1859,0.1348,0.0804,0.0303,0.024,-0.0073,-0.0191,-0.0116,-0.0189,-0.0184,-0.0179,-0.0143,-0.0144,-0.0146,-0.0147,0,0.1055,0.1119,0.127,0.136,0.137,0.1429,0.148,0.1549,0.1509,0.1655,0.1657,0.1591,0.1466,0.1143,0.0828,0.0508,0.0221,0.0072,0.0164,0.0093,-0.0158,-0.0158,-0.0213,-0.0218,-0.0221,-0.0224,-0.0227,0,0.0967,0.1047,0.1126,0.1212,0.1302,0.1275,0.1361,0.1319,0.1324,0.1435,0.1286,0.1368,0.1055,0.094,0.0675,0.0381,0.0454,0.0051,-0.0029,0.0022,0.0014,0.0027,0.0016,0.012,0.0121,0.0121,0.0122,0,0.087,0.0964,0.1083,0.1109,0.1184,0.1192,0.1188,0.1176,0.1199,0.1165,0.1185,0.1077,0.1018,0.0826,0.0569,0.0526,0.0378,0.0264,-0.0001,-0.0011,-0.0042,-0.0057,0.0122,0.0122,0.0122,0.0123,0.0123,0,0.0779,0.0874,0.1002,0.1059,0.107,0.1101,0.1123,0.1126,0.1101,0.1042,0.0985,0.0878,0.0818,0.0651,0.0485,0.0509,0.0329,0.0196,0.0188,0.0025,-0.0109,-0.0096,-0.0042,0.0054,0.0054,0.0054,0.0054,0,0.0699,0.0831,0.0828,0.0923,0.0986,0.0934,0.0954,0.0944,0.0883,0.0867,0.0726,0.0653,0.0516,0.0448,0.0394,0.0244,0.0192,0.0208,0.0005,-0.0,-0.008,-0.0026,0.002,-0.0039,0.0053,0.0053,0.0053,0,0.0625,0.07,0.0703,0.0747,0.0757,0.077,0.079,0.079,0.0801,0.0684,0.0681,0.0505,0.042,0.0346,0.0229,0.018,0.0182,0.0081,0.0074,0.0085,0.0096,-0.0015,-0.0025,0.0113,0.0114,0.0115,0.0053,0,0.0593,0.0629,0.0648,0.0691,0.069,0.0705,0.0675,0.0651,0.0574,0.053,0.0441,0.0267,0.016,0.0103,0.0012,0.0017,-0.0023,-0.0102,-0.0147,-0.0084,-0.0126,-0.0125,-0.0188,-0.0192,-0.0194,-0.0197,0,0,0.0501,0.0558,0.0519,0.0561,0.0567,0.0498,0.0539,0.0497,0.0406,0.0381,0.0296,0.0097,-0.003,-0.007,-0.0063,-0.015,-0.0183,-0.0135,-0.0127,-0.0118,-0.0111,-0.0145,-0.0141,-0.0202,-0.0203,-0.0204,-0.0205,0,0.0492,0.0477,0.0518,0.0507,0.0493,0.0467,0.0471,0.0408,0.0364,0.029,0.0194,0.0097,-0.0072,-0.0132,-0.0195,-0.0183,-0.0264,-0.0221,-0.0096,-0.0149,-0.0137,-0.0127,-0.0157,-0.0151,-0.0211,-0.0211,-0.0211,0,0.044,0.0448,0.0452,0.045,0.0412,0.0432,0.0347,0.033,0.0336,0.0167,0.0116,-0.0001,-0.0138,-0.0205,-0.0249,-0.0278,-0.033,-0.0342,-0.0331,-0.03,-0.0358,-0.0344,-0.0332,-0.0485,-0.0485,-0.0485,0,0,0.0432,0.045,0.0427,0.0444,0.0436,0.0366,0.0344,0.031,0.0231,0.0187,0.0083,-0.0032,-0.0126,-0.0183,-0.0284,-0.0357,-0.0405,-0.0367,-0.0354,-0.0343,-0.0306,-0.036,-0.0348,-0.0485,-0.0485,-0.0485,0,0,0.0413,0.0411,0.0392,0.0421,0.0389,0.0321,0.0309,0.0264,0.0166,0.0151,0.0019,-0.0016,-0.0099,-0.0191,-0.0177,-0.0286,-0.035,-0.0356,-0.0201,-0.0187,-0.0175,-0.0098,-0.0261,0,0,0,0,0,0.0387,0.042,0.0404,0.0406,0.0363,0.0335,0.032,0.0262,0.0224,0.0211,0.0102,0.0033,-0.02,-0.0191,-0.0227,-0.021,-0.0488,-0.0487,-0.0487,-0.0307,-0.0291,-0.0277,0,0,0,0,0,0,0.0387,0.039,0.0403,0.0348,0.0339,0.0333,0.0279,0.026,0.0225,0.0216,0.0056,0.0029,-0.0058,-0.0181,-0.0211,-0.0192,-0.0252,-0.0487,-0.0487,-0.0487,-0.0301,-0.0288,-0.0277,0,0,0,0,0,0.0387,0.039,0.0351,0.0344,0.0336,0.0269,0.0277,0.0262,0.0212,0.0093,0.0065,0.0176,-0.0056,-0.0089,-0.02,-0.0175,-0.0231,-0.0242,-0.0487,-0.0487,-0.0487,-0.0295,0,0,0,0,0,0,0.0388,0.0335,0.0346,0.0339,0.035,0.0266,0.0255,0.0264,0.0086,0.0064,0.0207,0.0202,-0.0054,-0.0081,-0.0106,-0.0161,-0.0215,-0.0226,-0.0233,-0.0487,-0.0487,-0.0487,0,0,0,0,0,0,0.0334,0.0329,0.0341,0.0352,0.0345,0.0264,0.0255,0.0144,0.0081,0.0204,0.0199,0.0207,-0.003,-0.0075,-0.0095,-0.0266,-0.0202,-0.0213,-0.022,-0.0225,-0.0487,-0.0487,0,0,0,0,0,0,0.033,0.0325,0.0352,0.0347,0.034,0.0244,0.0157,0.0098,0.0155,0.0209,0.0154,0.0154,-0.0024,-0.0045,-0.0087,-0.0249,-0.0262,-0.0203,-0.021,-0.0215,-0.0218,0,0,0,0,0,0,0,0.0326,0.0386,0.0407,0.0342,0.0336,0.0278,0.0274,0.0271,0.0155,0.0154,0.0154,0.0154,-0.0142,-0.0154,-0.0165,-0.0234,0,0,-0.0202,-0.0207,0,0,0,0,0,0,0,0,0.0385,0.0386,0.0407,0.0406,0.0406,0.0278,0.0275,0.0271,0.0155,0.0154,0.0154,0.0154,-0.0145,-0.0155,-0.0164,0,0,0,0,0,0,0,0,0,0,0,0,0,0,0,0.0407,0.0406,0,0.0277,0.0275,0.0272,0.0154,0.0154,0.0154,0.0154,-0.0148,-0.0156,-0.0163,0,0,0,0,0,0,0,0,0,0,0,0,0,0,0,0,0,0,0,0,0,0,0,0,0,0,0,0,0,0,0,0,0,0,0,0,0,0,0,0,0,0,0,0,0,0,0,0,0,0,0,0,0,0,0,0,0,0,0,0,0,0,0,0,0,0,0,0,0]}]],[[{"header":{"parameterUnit":"kt","parameterCategory":2,"dx":1,"dy":1,"la1":30.253999710083008,"la2":30.299108505249023,"lo1":-89.0895004272461,"lo2":-89.04439544677734,"nx":28,"ny":28,"refTime":"2022-10-14T21:00:00:Z","depth":"4","parameterNumber":2,"parameterNumberName":"U-component_of_CURRENTS"},"data":[0.148,0.1532,0.1532,0.1482,0.1499,0.1614,0.1796,0.2051,0.2106,0.248,0.2566,0.2848,0.3008,0.3219,0.3208,0.3247,0.3197,0.3624,0.3615,0.3678,0.3702,0.3723,0.3559,0,0,0,0,0,0.1537,0.1558,0.1595,0.1666,0.1766,0.1876,0.2141,0.2324,0.2677,0.2724,0.2943,0.3085,0.323,0.3389,0.3291,0.3572,0.3631,0.344,0.3474,0.3693,0.372,0.3551,0,0,0,0,0,0,0.1622,0.1636,0.1753,0.1858,0.1975,0.2077,0.2251,0.2422,0.2628,0.3085,0.3148,0.346,0.3718,0.3706,0.3757,0.3731,0.3653,0.351,0.3545,0.3572,0.3407,0.3253,0.3133,0,0,0,0,0,0.1695,0.18,0.1879,0.201,0.2134,0.2285,0.2486,0.2605,0.2956,0.326,0.3463,0.3591,0.3745,0.3836,0.3876,0.388,0.405,0.3979,0.399,0.3857,0.3775,0.3722,0.3719,0.3821,0.3824,0.3826,0.3828,0,0.1773,0.1841,0.2051,0.2107,0.2219,0.2412,0.2541,0.2866,0.302,0.3469,0.3526,0.3817,0.3992,0.3986,0.412,0.4136,0.4079,0.405,0.3908,0.3816,0.3759,0.3749,0.3737,0.3849,0.3847,0.3846,0.3844,0,0.1823,0.1933,0.205,0.2258,0.2334,0.2427,0.2741,0.2885,0.3197,0.3456,0.3558,0.3882,0.4038,0.4157,0.4287,0.4176,0.4178,0.4118,0.43,0.4254,0.3788,0.3767,0.3884,0.3876,0.387,0.3864,0.386,0,0.1897,0.1979,0.2156,0.2225,0.2348,0.2516,0.2731,0.291,0.3205,0.3393,0.3639,0.3812,0.3992,0.4117,0.414,0.4116,0.4291,0.3977,0.3929,0.4083,0.4063,0.4066,0.4041,0.4268,0.4267,0.4267,0.4266,0,0.194,0.2095,0.2178,0.2242,0.2457,0.2566,0.2683,0.2961,0.3112,0.3419,0.3583,0.3791,0.3896,0.4002,0.4053,0.4025,0.4216,0.4133,0.3917,0.3897,0.4051,0.4028,0.4265,0.4264,0.4264,0.4264,0.4264,0,0.2028,0.2114,0.2222,0.2403,0.2443,0.2542,0.2783,0.2898,0.317,0.3317,0.3529,0.3618,0.3773,0.3723,0.3906,0.3872,0.3895,0.3897,0.39,0.3648,0.3505,0.3668,0.3864,0.3861,0.3858,0.3855,0.3852,0,0.2054,0.2158,0.2241,0.2367,0.2438,0.2584,0.2703,0.2865,0.3024,0.3191,0.3289,0.343,0.3433,0.3511,0.3593,0.363,0.3707,0.3602,0.372,0.3723,0.3466,0.3592,0.3684,0.3809,0.3815,0.3819,0.3821,0,0.2055,0.2216,0.2234,0.2309,0.2461,0.2502,0.2656,0.2791,0.2919,0.3044,0.3187,0.3294,0.3363,0.3403,0.3417,0.3483,0.363,0.3491,0.3492,0.3522,0.3833,0.357,0.357,0.3658,0.3663,0.3668,0.3792,0,0.2155,0.2223,0.2252,0.2349,0.2418,0.2481,0.2573,0.2682,0.2769,0.2837,0.3016,0.3054,0.3175,0.3178,0.3189,0.334,0.3348,0.3306,0.3251,0.3374,0.3405,0.3429,0.3119,0.3117,0.3116,0.3114,0,0,0.215,0.2173,0.222,0.2282,0.2333,0.2412,0.2465,0.2531,0.2636,0.2711,0.2728,0.2915,0.2927,0.3052,0.3106,0.3094,0.316,0.313,0.3301,0.3322,0.3341,0.3379,0.3403,0.3111,0.3111,0.311,0.311,0,0.2137,0.2175,0.22,0.2258,0.2348,0.2372,0.2413,0.2473,0.2537,0.2653,0.2686,0.278,0.2885,0.2916,0.2946,0.3067,0.3077,0.31,0.3208,0.3283,0.3306,0.3327,0.3368,0.3391,0.3106,0.3106,0.3106,0,0.2133,0.2158,0.2163,0.2211,0.2253,0.2305,0.2308,0.2384,0.2447,0.2468,0.2597,0.2651,0.2697,0.28,0.2857,0.2824,0.3004,0.2929,0.2938,0.2977,0.3053,0.3079,0.3103,0.2802,0.2801,0.28,0,0,0.2137,0.2156,0.2182,0.2205,0.2235,0.2276,0.231,0.2355,0.2417,0.2465,0.2522,0.2593,0.266,0.2715,0.2766,0.2847,0.2867,0.2892,0.2907,0.2918,0.2963,0.3042,0.3067,0.2796,0.2796,0.2796,0,0,0.2126,0.214,0.217,0.218,0.2232,0.2239,0.229,0.2321,0.2416,0.2459,0.2485,0.2508,0.2641,0.2643,0.2596,0.2746,0.2687,0.2697,0.2746,0.2764,0.2778,0.282,0.2555,0,0,0,0,0,0.2122,0.2127,0.2154,0.216,0.2183,0.2216,0.2225,0.2285,0.2318,0.2368,0.2451,0.2437,0.2633,0.2592,0.2602,0.266,0.275,0.2758,0.2766,0.2848,0.2867,0.2883,0,0,0,0,0,0,0.2124,0.2125,0.2154,0.2151,0.2159,0.2213,0.2221,0.2236,0.2316,0.2331,0.2419,0.2435,0.2445,0.2585,0.2595,0.265,0.2552,0.2753,0.276,0.2767,0.2855,0.287,0.2883,0,0,0,0,0,0.2125,0.2127,0.2152,0.2153,0.2159,0.2231,0.2224,0.2237,0.2318,0.2348,0.2369,0.2376,0.2441,0.2458,0.2591,0.2647,0.2545,0.2549,0.2758,0.2763,0.2768,0.2862,0,0,0,0,0,0,0.2127,0.2133,0.2155,0.216,0.2184,0.2234,0.2243,0.2238,0.2334,0.2353,0.2299,0.2308,0.2437,0.2451,0.2463,0.2647,0.2539,0.2543,0.2545,0.2762,0.2766,0.277,0,0,0,0,0,0,0.2134,0.2136,0.2157,0.2194,0.2203,0.2236,0.2244,0.2271,0.2337,0.2281,0.229,0.2302,0.2447,0.2446,0.2456,0.2492,0.2535,0.2539,0.2541,0.2543,0.2766,0.2769,0,0,0,0,0,0,0.2136,0.2138,0.2193,0.2199,0.2208,0.2262,0.2264,0.2302,0.2321,0.2276,0.233,0.2335,0.2442,0.2452,0.245,0.2481,0.249,0.2535,0.2538,0.2539,0.2541,0,0,0,0,0,0,0,0.2138,0.2105,0.2132,0.2204,0.2212,0.2204,0.2205,0.2206,0.2322,0.2326,0.2329,0.2333,0.2515,0.2519,0.2523,0.2473,0,0,0.2535,0.2537,0,0,0,0,0,0,0,0,0.2106,0.2105,0.2133,0.2134,0.2135,0.2204,0.2205,0.2205,0.2323,0.2326,0.2329,0.2331,0.2516,0.2519,0.2522,0,0,0,0,0,0,0,0,0,0,0,0,0,0,0,0.2133,0.2134,0,0.2204,0.2205,0.2205,0.2323,0.2325,0.2328,0.233,0.2517,0.2519,0.2522,0,0,0,0,0,0,0,0,0,0,0,0,0,0,0,0,0,0,0,0,0,0,0,0,0,0,0,0,0,0,0,0,0,0,0,0,0,0,0,0,0,0,0,0,0,0,0,0,0,0,0,0,0,0,0,0,0,0,0,0,0,0,0,0,0,0,0,0,0]}],[{"header":{"parameterUnit":"kt","parameterCategory":2,"dx":1,"dy":1,"la1":30.253999710083008,"la2":30.299108505249023,"lo1":-89.0895004272461,"lo2":-89.04439544677734,"nx":28,"ny":28,"refTime":"2022-10-14T21:00:00:Z","depth":"4","parameterNumber":3,"parameterNumberName":"V-component_of_CURRENTS"},"data":[0.1081,0.1189,0.1251,0.1434,0.1539,0.1732,0.1842,0.1867,0.1805,0.1771,0.1473,0.1357,0.0804,0.1081,0.0269,0.0162,0.0012,-0.0532,-0.0539,-0.0749,-0.0745,-0.0741,-0.0598,0,0,0,0,0,0.1088,0.1143,0.1277,0.1432,0.1605,0.1715,0.1872,0.1926,0.1947,0.184,0.1795,0.1448,0.09,0.0649,0.0289,0.0157,-0.0325,-0.0275,-0.0443,-0.0746,-0.0742,-0.0604,0,0,0,0,0,0,0.1083,0.1135,0.1254,0.1408,0.1579,0.1726,0.1811,0.1841,0.1885,0.1789,0.1727,0.1344,0.1116,0.0571,0.0196,-0.0165,-0.0251,-0.0344,-0.0361,-0.0361,-0.0194,-0.0039,-0.0141,0,0,0,0,0,0.1061,0.1116,0.1198,0.138,0.1511,0.1659,0.1783,0.1827,0.1841,0.1823,0.165,0.1348,0.0972,0.05,0.0099,-0.0272,-0.0524,-0.0641,-0.0641,-0.061,-0.0532,-0.0568,-0.0548,-0.0725,-0.0724,-0.0724,-0.0724,0,0.1013,0.1078,0.1231,0.1313,0.138,0.1519,0.1612,0.166,0.1689,0.1616,0.1584,0.1305,0.1092,0.0494,0.0107,-0.0411,-0.0476,-0.0628,-0.0594,-0.0522,-0.0564,-0.0544,-0.0526,-0.072,-0.072,-0.0721,-0.0721,0,0.0979,0.1037,0.1146,0.125,0.1302,0.1383,0.1511,0.1557,0.1532,0.1524,0.1497,0.1247,0.0917,0.0551,0.011,-0.0091,-0.0421,-0.0526,-0.0361,-0.041,-0.053,-0.0512,-0.0714,-0.0716,-0.0717,-0.0718,-0.0718,0,0.0937,0.1007,0.1096,0.115,0.1262,0.1263,0.1363,0.1347,0.1328,0.1333,0.1154,0.1083,0.0721,0.0471,0.0199,-0.0133,-0.0165,-0.0353,-0.0416,-0.03,-0.0285,-0.0373,-0.0364,-0.043,-0.0428,-0.0426,-0.0425,0,0.087,0.0958,0.1045,0.1063,0.1117,0.1165,0.1193,0.1158,0.1178,0.1078,0.1054,0.0842,0.0737,0.0482,0.0181,0.019,-0.0172,-0.0205,-0.0354,-0.0355,-0.036,-0.0354,-0.0423,-0.0423,-0.0422,-0.0422,-0.0421,0,0.0813,0.0874,0.0968,0.1026,0.104,0.1077,0.109,0.1097,0.1016,0.0975,0.0872,0.0756,0.0595,0.0521,0.0209,0.0286,0.011,-0.0039,-0.0052,-0.0093,-0.0141,-0.0178,-0.0204,-0.0201,-0.0199,-0.0196,-0.0194,0,0.0743,0.0839,0.0836,0.0908,0.0947,0.0909,0.0926,0.0899,0.0852,0.0809,0.0674,0.0616,0.0528,0.049,0.0371,0.0184,0.0084,0.0192,-0.0115,-0.0124,-0.0098,-0.0126,0.006,-0.0159,-0.0163,-0.0166,-0.0169,0,0.0673,0.0728,0.0738,0.0775,0.0766,0.0775,0.0784,0.0767,0.0777,0.0695,0.0672,0.0554,0.0481,0.0425,0.0334,0.0231,0.0129,0.0164,0.0155,0.0092,-0.0103,-0.0086,-0.0105,0.0074,0.0071,0.0069,-0.0144,0,0.063,0.0665,0.0686,0.0712,0.0706,0.0725,0.0691,0.0682,0.0654,0.0611,0.0547,0.0435,0.0352,0.0314,0.0262,0.0185,0.015,0.0106,0.0063,0.007,-0.0024,-0.0042,0.0145,0.0143,0.0141,0.014,0,0,0.0556,0.0602,0.0573,0.0607,0.0611,0.056,0.0592,0.0566,0.0517,0.0503,0.0481,0.0342,0.0266,0.0199,0.0205,0.0161,0.0092,0.0161,0.0078,0.0072,0.0066,-0.0023,-0.0039,0.0137,0.0136,0.0135,0.0135,0,0.0539,0.0535,0.0569,0.0561,0.0559,0.0533,0.054,0.0506,0.0493,0.0465,0.0401,0.0334,0.0251,0.0185,0.0141,0.0144,0.0052,0.0129,0.018,0.0067,0.0064,0.0059,-0.0027,-0.004,0.0131,0.0131,0.0131,0,0.0489,0.0495,0.05,0.0499,0.0486,0.0495,0.0451,0.0453,0.0459,0.0363,0.0349,0.0279,0.019,0.0148,0.0122,0.0101,0.0006,0.0053,0.006,0.0057,-0.0064,-0.0067,-0.007,-0.0035,-0.0035,-0.0035,0,0,0.0477,0.0494,0.0472,0.0492,0.049,0.0455,0.0445,0.0432,0.0394,0.0379,0.032,0.0255,0.0197,0.0163,0.0102,0.0053,-0.0026,0.0039,0.0047,0.0054,0.0055,-0.0063,-0.0066,-0.0035,-0.0035,-0.0035,0,0,0.0464,0.0457,0.0451,0.0474,0.0455,0.0416,0.042,0.0398,0.0358,0.0363,0.0283,0.0263,0.022,0.0159,0.0171,0.0092,0.0052,0.0048,0.0148,0.0157,0.0164,0.0186,0.0113,0,0,0,0,0,0.0435,0.0459,0.0454,0.0455,0.0438,0.0419,0.0412,0.0389,0.0382,0.0383,0.0332,0.0287,0.0154,0.0163,0.0141,0.0144,-0.0034,-0.0034,-0.0034,0.0082,0.0092,0.01,0,0,0,0,0,0,0.0435,0.0438,0.0453,0.042,0.0415,0.0418,0.0396,0.0389,0.0382,0.0381,0.0299,0.0283,0.0229,0.0169,0.015,0.0154,0.0119,-0.0034,-0.0034,-0.0034,0.0086,0.0094,0.0101,0,0,0,0,0,0.0435,0.0437,0.0428,0.0418,0.0414,0.0385,0.0397,0.039,0.0383,0.0303,0.0289,0.0371,0.023,0.0211,0.0157,0.0165,0.0131,0.0125,-0.0034,-0.0034,-0.0034,0.009,0,0,0,0,0,0,0.0435,0.0414,0.0425,0.0421,0.0426,0.0383,0.038,0.0392,0.0304,0.0293,0.037,0.0369,0.023,0.0215,0.02,0.0174,0.0141,0.0135,0.013,-0.0034,-0.0034,-0.0034,0,0,0,0,0,0,0.0412,0.0411,0.0422,0.0435,0.0432,0.0383,0.038,0.0309,0.0301,0.0373,0.0371,0.037,0.0239,0.0218,0.0206,0.0097,0.0149,0.0143,0.0138,0.0135,-0.0034,-0.0034,0,0,0,0,0,0,0.041,0.0409,0.0435,0.0433,0.043,0.038,0.0315,0.0289,0.0349,0.0375,0.0351,0.0351,0.0242,0.023,0.0211,0.0106,0.0099,0.0149,0.0144,0.0141,0.0139,0,0,0,0,0,0,0,0.0409,0.0436,0.0454,0.0432,0.0429,0.0385,0.0383,0.0381,0.0349,0.035,0.035,0.0351,0.0186,0.0179,0.0172,0.0114,0,0,0.015,0.0146,0,0,0,0,0,0,0,0,0.0435,0.0436,0.0454,0.0454,0.0453,0.0385,0.0383,0.0382,0.0349,0.035,0.035,0.0351,0.0184,0.0178,0.0173,0,0,0,0,0,0,0,0,0,0,0,0,0,0,0,0.0454,0.0454,0,0.0384,0.0383,0.0382,0.0349,0.035,0.035,0.0351,0.0183,0.0178,0.0173,0,0,0,0,0,0,0,0,0,0,0,0,0,0,0,0,0,0,0,0,0,0,0,0,0,0,0,0,0,0,0,0,0,0,0,0,0,0,0,0,0,0,0,0,0,0,0,0,0,0,0,0,0,0,0,0,0,0,0,0,0,0,0,0,0,0,0,0,0]}]]]